Location: Fort Wayne
(41.1310°N, 85.1290°W)
Time: 22:04:51
(UTC-04:00)

SR - Visible Passes

Search period start: 29 July 2015 00:00
Search period end: 08 August 2015 00:00
Orbit: 581 x 879 km, 66.7° (Epoch: 29 July)

Date Brightness Start Highest point End Pass type
(mag) Time Alt. Az. Time Alt. Az. Time Alt. Az.
29 Jul ? 02:44:25 10° N 02:48:03 20° NE 02:52:00 10° E visible
29 Jul ? 04:25:28 10° NW 04:30:41 73° WSW 04:36:18 10° SSE visible
30 Jul ? 01:56:52 10° NNE 01:58:30 12° NE 02:00:23 10° ENE visible
30 Jul ? 03:36:32 10° NNW 03:41:40 60° ENE 03:46:35 13° SE visible
30 Jul ? 05:19:40 10° WNW 05:23:32 20° WSW 05:25:48 15° SW visible
31 Jul ? 02:47:52 10° NNW 02:52:31 33° NE 02:56:23 15° ESE visible
31 Jul ? 04:29:50 10° NW 04:34:43 38° WSW 04:35:42 35° SW visible
01 Aug ? 01:59:32 10° N 02:03:10 19° NE 02:07:00 10° E visible
01 Aug ? 03:40:34 10° NNW 03:45:49 74° WSW 03:46:21 68° SSW visible
02 Aug ? 01:12:01 10° NNE 01:13:37 11° NE 01:15:28 10° ENE visible
02 Aug ? 02:51:39 10° NNW 02:56:48 59° ENE 02:57:23 56° E visible
02 Aug ? 04:34:44 10° WNW 04:36:45 17° W 04:36:45 17° W visible
03 Aug ? 02:02:59 10° NNW 02:07:38 33° NE 02:08:40 30° ENE visible
03 Aug ? 03:44:55 10° NW 03:48:03 30° WNW 03:48:03 30° WNW visible
04 Aug ? 01:14:39 10° N 01:18:16 19° NE 01:20:08 17° ENE visible
04 Aug ? 02:55:40 10° NNW 02:59:32 50° NW 02:59:32 50° NW visible
05 Aug ? 00:27:09 10° NNE 00:28:42 11° NE 00:30:31 10° ENE visible
05 Aug ? 02:06:45 10° NNW 02:11:08 52° NNE 02:11:08 52° NNE visible
05 Aug ? 03:49:47 10° WNW 03:50:32 13° WNW 03:50:32 13° WNW visible
06 Aug ? 01:18:05 10° NNW 01:22:45 32° NE 01:22:50 32° NE visible
06 Aug ? 02:59:59 10° NW 03:02:14 24° WNW 03:02:14 24° WNW visible
07 Aug ? 00:29:46 10° N 00:33:22 19° NE 00:34:36 18° ENE visible
07 Aug ? 02:10:46 10° NNW 02:14:01 39° NW 02:14:01 39° NW visible
07 Aug ? 23:42:16 10° NNE 23:43:48 11° NE 23:45:34 10° NE visible
